Tracking 19245 objects as of 18-Aug-2018
HD Live streaming from Space Station
objects crossing your sky now

OPS 7034 (TRANSIT 18)

Track OPS 7034 (TRANSIT 18) now!
10-day predictions
OPS 7034 (TRANSIT 18) is classified as:


NORAD ID: 3133
Int'l Code: 1968-012A
Perigee: 1,019.4 km
Apogee: 1,131.9 km
Inclination: 90.0 °
Period: 106.6 minutes
Semi major axis: 7446 km
RCS: 1.3738 m2 (large)
Launch date: March 2, 1968
Source: United States (US)
Launch site: AIR FORCE WESTERN TEST RANGE (AFWTR)
aabbcc
Your satellite tracking list
Your tracking list is empty




NASA's NSSDC Master Catalog

Two Line Element Set (TLE):
1 03133U 68012A   18229.77038024  .00000003  00000-0 -90202-5 0  9992
2 03133  89.9677 273.6869 0075580 355.8405 138.6401 13.51019315484608
Source of the keplerian elements: AFSPC